Regional Weather Roundup
Issued by NWS

Home | Current Version | Previous Version | Graphics & Text | Print | Product List | Glossary On
Versions: 1 2 3 4 5 6 7 8 9 10 11 12 13 14 15 16 17 18 19 20 21 22 23 24 25 26 27 28 29 30 31 32 33 34 35 36 37 38 39 40 41 42 43 44 45 46 47 48 49 50
000
ASUS43 KLSX 061807
RWRMO

WEATHER SUMMARY FOR MISSOURI
NATIONAL WEATHER SERVICE SPRINGFIELD MO
100 PM CDT MON JUL 06 2015

NOTE: "FAIR" INDICATES FEW OR NO CLOUDS BELOW 12,000 FEET WITH NO
       SIGNIFICANT WEATHER AND/OR OBSTRUCTIONS TO VISIBILITY.
       CURRENT SKY AND/OR WEATHER CONDITIONS ARE NOT AVAILABLE FOR
       CHILLICOTHE AND FARMINGTON.

MOZ001>031-035>038-043-044-053-054-061900-
...NORTHERN AND WESTERN MISSOURI...

CITY           SKY/WX    TMP DP  RH WIND       PRES   REMARKS
KANSAS CTY INT PTSUNNY   86  76  71 S16G23    29.89S HX  96
6HR MIN TEMP:  74; 6HR MAX TEMP:  86;

KANSAS C DTWN  PTSUNNY   89  75  63 S18       29.87F HX  99
6HR MIN TEMP:  77; 6HR MAX TEMP:  89; 6HR PCP: TRACE;

LEE`S SUMMIT   PTSUNNY   85  74  69 S14       29.92F HX  92
6HR MIN TEMP:  74; 6HR MAX TEMP:  85;

ST JOSEPH      CLOUDY    88  75  65 S12       29.85F HX  97
6HR MIN TEMP:  77; 6HR MAX TEMP:  88;

CHILLICOTHE      N/A     86  76  71 S8        29.90F HX  96
6HR MIN TEMP:  74; 6HR MAX TEMP:  86;

KIRKSVILLE     CLOUDY    84  73  69 SW12      29.93F HX  90
6HR MIN TEMP:  73; 6HR MAX TEMP:  84;


$$
MOZ066>068-077>081-088>096-101>105-061900-
...SOUTHWEST MISSOURI...

CITY           SKY/WX    TMP DP  RH WIND       PRES   REMARKS
SPRINGFIELD    CLOUDY    82  72  71 S14       30.00F
6HR MIN TEMP:  72; 6HR MAX TEMP:  82;

JOPLIN         CLOUDY    84  74  71 S17       29.97F HX  91
6HR MIN TEMP:  76; 6HR MAX TEMP:  86; 6HR PCP: TRACE;


$$
MOZ032>034-039>042-045>050-055>058-069>072-061900-
...CENTRAL MISSOURI...

CITY           SKY/WX    TMP DP  RH WIND       PRES   REMARKS
COLUMBIA       CLOUDY    84  75  74 S13       29.97F HX  92
6HR MIN TEMP:  74; 6HR MAX TEMP:  84;

JEFFERSON CITY CLOUDY    84  73  69 S10       29.96F HX  90
6HR MIN TEMP:  75; 6HR MAX TEMP:  84;

ROLLA          LGT RAIN  76  74  93 W5        29.99F FOG
6HR MIN TEMP:  73; 6HR MAX TEMP:  84; 6HR PCP:  0.03;

SEDALIA        CLOUDY    86  75  69 SW15      29.96F HX  95
6HR MIN TEMP:  74; 6HR MAX TEMP:  87;

WHITEMAN AFB   CLOUDY    85  75  73 S16       29.92F HX  93
WARRENSBURG    CLOUDY    84  72  65 S13G18    29.92F
OSAGE BEACH    CLOUDY    84  72  65 S12       29.99S

$$
MOZ051-052-059>065-061900-
...EAST CENTRAL MISSOURI...

CITY           SKY/WX    TMP DP  RH WIND       PRES   REMARKS
ST LOUIS INTL  PTSUNNY   90  73  57 SW9       29.98F HX  98
6HR MIN TEMP:  76; 6HR MAX TEMP:  90;

SPIRIT OF STL  PTSUNNY   87  75  67 W8        29.96F HX  96
6HR MIN TEMP:  74; 6HR MAX TEMP:  88; 6HR PCP:  0.02;

ST CHARLES     PTSUNNY   88  74  63 SW10      29.96F HX  96
6HR MIN TEMP:  73; 6HR MAX TEMP:  89;


$$
MOZ072>076-082>087-097>100-106>115-061900-
...SOUTH CENTRAL AND SOUTHEAST MISSOURI...

CITY           SKY/WX    TMP DP  RH WIND       PRES   REMARKS
CAPE GIRARDEAU PTSUNNY   81  73  76 S9        30.06F
6HR MIN TEMP:  74; 6HR MAX TEMP:  81; 6HR PCP:  0.04;

FARMINGTON     PTSUNNY   84  73  70 S9        30.06F HX  91
6HR MIN TEMP:  72; 6HR MAX TEMP:  84;

POPLAR BLUFF   PTSUNNY   81  74  79 SW13      30.04F
6HR MIN TEMP:  73; 6HR MAX TEMP:  82; 6HR PCP: TRACE;

WEST PLAINS    PTSUNNY   84  72  67 S9        30.06F
6HR MIN TEMP:  71; 6HR MAX TEMP:  84;


$$



USA.gov is the U.S. government's official web portal to all federal, state and local government web resources and services.